Time,TemperatureF,DewpointF,PressureIn,WindDirection,WindDirectionDegrees,WindSpeedMPH,WindSpeedGustMPH,Humidity,HourlyPrecipIn,Conditions,Clouds,dailyrainin,SoftwareType,DateUTC
2013-01-20 00:00:00,40.4,35.9,30.15,South,183,2.0,2.0,84,0.00,,,0.00,Wunderground v.1.15,2013-01-20 06:00:00,
2013-01-20 00:05:00,40.4,35.9,30.15,South,191,2.0,4.0,84,0.00,,,0.00,Wunderground v.1.15,2013-01-20 06:05:00,
2013-01-20 00:10:00,40.4,35.9,30.15,South,191,2.0,7.0,84,0.00,,,0.00,Wunderground v.1.15,2013-01-20 06:10:00,
2013-01-20 00:15:00,40.4,35.9,30.15,SSW,197,2.0,7.0,84,0.00,,,0.00,Wunderground v.1.15,2013-01-20 06:15:00,
2013-01-20 00:20:00,40.3,35.8,30.15,SSW,194,3.0,7.0,84,0.00,,,0.00,Wunderground v.1.15,2013-01-20 06:20:00,
2013-01-20 00:25:00,40.2,35.8,30.15,SSW,199,4.0,7.0,84,0.00,,,0.00,Wunderground v.1.15,2013-01-20 06:25:00,
2013-01-20 00:30:00,39.9,35.5,30.15,SSW,199,2.0,2.0,84,0.00,,,0.00,Wunderground v.1.15,2013-01-20 06:30:00,
2013-01-20 00:40:00,39.4,35.3,30.15,SSW,199,1.0,7.0,85,0.00,,,0.00,Wunderground v.1.15,2013-01-20 06:40:00,
2013-01-20 00:45:00,39.2,35.1,30.15,SSW,199,1.0,7.0,85,0.00,,,0.00,Wunderground v.1.15,2013-01-20 06:45:00,
2013-01-20 00:50:00,38.9,35.1,30.15,SSW,199,1.0,1.0,86,0.00,,,0.00,Wunderground v.1.15,2013-01-20 06:50:00,
2013-01-20 00:55:00,38.7,34.9,30.15,SSW,199,1.0,7.0,86,0.00,,,0.00,Wunderground v.1.15,2013-01-20 06:55:00,
2013-01-20 01:00:00,38.6,35.1,30.16,SSW,199,0.0,7.0,87,0.00,,,0.00,Wunderground v.1.15,2013-01-20 07:00:00,
2013-01-20 01:05:00,38.4,34.9,30.16,SSW,199,0.0,7.0,87,0.00,,,0.00,Wunderground v.1.15,2013-01-20 07:05:00,
2013-01-20 01:10:00,38.3,34.8,30.16,SSW,199,0.0,7.0,87,0.00,,,0.00,Wunderground v.1.15,2013-01-20 07:10:00,
2013-01-20 01:15:00,38.1,34.6,30.16,SSW,199,0.0,7.0,87,0.00,,,0.00,Wunderground v.1.15,2013-01-20 07:15:00,
2013-01-20 01:20:00,37.8,34.3,30.16,SSW,199,0.0,7.0,87,0.00,,,0.00,Wunderground v.1.15,2013-01-20 07:20:00,
2013-01-20 01:25:00,37.6,34.1,30.17,SSW,199,0.0,7.0,87,0.00,,,0.00,Wunderground v.1.15,2013-01-20 07:25:00,
2013-01-20 01:30:00,37.5,34.3,30.17,SSW,199,0.0,7.0,88,0.00,,,0.00,Wunderground v.1.15,2013-01-20 07:30:00,
2013-01-20 01:35:00,37.3,34.1,30.17,SSW,199,0.0,7.0,88,0.00,,,0.00,Wunderground v.1.15,2013-01-20 07:35:00,
2013-01-20 01:40:00,37.1,34.2,30.17,SSW,199,0.0,7.0,89,0.00,,,0.00,Wunderground v.1.15,2013-01-20 07:40:00,
2013-01-20 01:45:00,37.1,34.2,30.17,SSW,199,0.0,7.0,89,0.00,,,0.00,Wunderground v.1.15,2013-01-20 07:45:00,
2013-01-20 01:50:00,36.9,34.0,30.17,SSW,199,0.0,7.0,89,0.00,,,0.00,Wunderground v.1.15,2013-01-20 07:50:00,
2013-01-20 01:55:00,36.8,33.9,30.17,SSW,199,0.0,7.0,89,0.00,,,0.00,Wunderground v.1.15,2013-01-20 07:55:00,
2013-01-20 02:00:00,36.6,33.7,30.18,SSW,199,0.0,7.0,89,0.00,,,0.00,Wunderground v.1.15,2013-01-20 08:00:00,
2013-01-20 02:05:00,36.5,33.8,30.18,SSW,199,0.0,7.0,90,0.00,,,0.00,Wunderground v.1.15,2013-01-20 08:05:00,
2013-01-20 02:10:00,36.4,33.7,30.18,SSW,199,0.0,7.0,90,0.00,,,0.00,Wunderground v.1.15,2013-01-20 08:10:00,
2013-01-20 02:15:00,36.3,33.6,30.18,West,264,0.0,7.0,90,0.00,,,0.00,Wunderground v.1.15,2013-01-20 08:15:00,
2013-01-20 02:20:00,36.3,33.6,30.18,West,264,0.0,7.0,90,0.00,,,0.00,Wunderground v.1.15,2013-01-20 08:20:00,
2013-01-20 02:25:00,36.2,33.5,30.18,West,264,0.0,7.0,90,0.00,,,0.00,Wunderground v.1.15,2013-01-20 08:25:00,
2013-01-20 02:30:00,36.1,33.5,30.18,West,264,0.0,7.0,90,0.00,,,0.00,Wunderground v.1.15,2013-01-20 08:30:00,
2013-01-20 02:35:00,36.0,33.4,30.19,West,264,0.0,7.0,90,0.00,,,0.00,Wunderground v.1.15,2013-01-20 08:35:00,
2013-01-20 02:40:00,35.9,33.3,30.19,West,264,0.0,7.0,90,0.00,,,0.00,Wunderground v.1.15,2013-01-20 08:40:00,
2013-01-20 02:45:00,35.7,33.1,30.19,West,264,0.0,7.0,90,0.00,,,0.00,Wunderground v.1.15,2013-01-20 08:45:00,
2013-01-20 02:50:00,35.7,33.1,30.19,West,269,0.0,7.0,90,0.00,,,0.00,Wunderground v.1.15,2013-01-20 08:50:00,
2013-01-20 02:55:00,35.6,33.0,30.19,West,269,0.0,7.0,90,0.00,,,0.00,Wunderground v.1.15,2013-01-20 08:55:00,
2013-01-20 03:00:00,35.6,33.2,30.19,West,269,0.0,7.0,91,0.00,,,0.00,Wunderground v.1.15,2013-01-20 09:00:00,
2013-01-20 03:10:00,35.7,33.3,30.19,West,269,0.0,7.0,91,0.00,,,0.00,Wunderground v.1.15,2013-01-20 09:10:00,
2013-01-20 03:15:00,35.6,33.2,30.19,West,269,0.0,7.0,91,0.00,,,0.00,Wunderground v.1.15,2013-01-20 09:15:00,
2013-01-20 03:20:00,35.6,33.2,30.19,West,269,0.0,7.0,91,0.00,,,0.00,Wunderground v.1.15,2013-01-20 09:20:00,
2013-01-20 03:25:00,35.7,33.3,30.19,West,269,0.0,7.0,91,0.00,,,0.00,Wunderground v.1.15,2013-01-20 09:25:00,
2013-01-20 03:30:00,35.8,33.2,30.19,West,269,0.0,7.0,90,0.00,,,0.00,Wunderground v.1.15,2013-01-20 09:30:00,
2013-01-20 03:35:00,35.8,33.2,30.19,West,269,0.0,7.0,90,0.00,,,0.00,Wunderground v.1.15,2013-01-20 09:35:00,
2013-01-20 03:40:00,35.8,33.2,30.19,West,269,0.0,7.0,90,0.00,,,0.00,Wunderground v.1.15,2013-01-20 09:40:00,
2013-01-20 03:45:00,35.6,33.0,30.19,West,269,0.0,7.0,90,0.00,,,0.00,Wunderground v.1.15,2013-01-20 09:45:00,
2013-01-20 03:50:00,35.5,32.9,30.19,West,269,0.0,7.0,90,0.00,,,0.00,Wunderground v.1.15,2013-01-20 09:50:00,
2013-01-20 03:55:00,35.4,32.8,30.19,West,269,0.0,7.0,90,0.00,,,0.00,Wunderground v.1.15,2013-01-20 09:55:00,
2013-01-20 04:00:00,35.4,32.8,30.19,West,269,0.0,7.0,90,0.00,,,0.00,Wunderground v.1.15,2013-01-20 10:00:00,
2013-01-20 04:05:00,35.3,32.7,30.19,West,269,0.0,7.0,90,0.00,,,0.00,Wunderground v.1.15,2013-01-20 10:05:00,
2013-01-20 04:10:00,35.2,32.8,30.19,West,269,0.0,7.0,91,0.00,,,0.00,Wunderground v.1.15,2013-01-20 10:10:00,
2013-01-20 04:15:00,35.1,32.7,30.19,West,269,0.0,7.0,91,0.00,,,0.00,Wunderground v.1.15,2013-01-20 10:15:00,
2013-01-20 04:20:00,35.1,32.7,30.19,West,269,0.0,7.0,91,0.00,,,0.00,Wunderground v.1.15,2013-01-20 10:20:00,
2013-01-20 04:25:00,34.9,32.5,30.19,West,269,0.0,7.0,91,0.00,,,0.00,Wunderground v.1.15,2013-01-20 10:25:00,
2013-01-20 04:30:00,34.7,32.3,30.19,West,269,0.0,7.0,91,0.00,,,0.00,Wunderground v.1.15,2013-01-20 10:30:00,
2013-01-20 04:35:00,34.5,32.1,30.20,West,269,0.0,7.0,91,0.00,,,0.00,Wunderground v.1.15,2013-01-20 10:35:00,
2013-01-20 04:40:00,34.3,31.9,30.20,West,269,0.0,7.0,91,0.00,,,0.00,Wunderground v.1.15,2013-01-20 10:40:00,
2013-01-20 04:45:00,34.1,31.7,30.20,West,269,0.0,7.0,91,0.00,,,0.00,Wunderground v.1.15,2013-01-20 10:45:00,
2013-01-20 04:50:00,34.1,32.0,30.20,West,269,0.0,7.0,92,0.00,,,0.00,Wunderground v.1.15,2013-01-20 10:50:00,
2013-01-20 04:55:00,34.0,31.9,30.21,West,269,0.0,7.0,92,0.00,,,0.00,Wunderground v.1.15,2013-01-20 10:55:00,
2013-01-20 05:05:00,33.5,31.2,30.21,West,269,0.0,7.0,91,0.00,,,0.00,Wunderground v.1.15,2013-01-20 11:05:00,
2013-01-20 05:10:00,33.4,31.1,30.21,West,269,0.0,7.0,91,0.00,,,0.00,Wunderground v.1.15,2013-01-20 11:10:00,
2013-01-20 05:15:00,33.3,31.2,30.21,West,269,0.0,7.0,92,0.00,,,0.00,Wunderground v.1.15,2013-01-20 11:15:00,
2013-01-20 05:20:00,33.3,31.2,30.22,West,269,0.0,7.0,92,0.00,,,0.00,Wunderground v.1.15,2013-01-20 11:20:00,
2013-01-20 05:25:00,33.2,30.9,30.22,West,269,0.0,7.0,91,0.00,,,0.00,Wunderground v.1.15,2013-01-20 11:25:00,
2013-01-20 05:30:00,33.0,30.7,30.22,West,269,0.0,7.0,91,0.00,,,0.00,Wunderground v.1.15,2013-01-20 11:30:00,
2013-01-20 05:35:00,32.9,30.6,30.22,NW,321,0.0,7.0,91,0.00,,,0.00,Wunderground v.1.15,2013-01-20 11:35:00,
2013-01-20 05:40:00,32.8,30.5,30.23,NW,321,0.0,7.0,91,0.00,,,0.00,Wunderground v.1.15,2013-01-20 11:40:00,
2013-01-20 05:45:00,32.8,30.5,30.23,NW,321,0.0,7.0,91,0.00,,,0.00,Wunderground v.1.15,2013-01-20 11:45:00,
2013-01-20 05:50:00,32.8,30.2,30.23,NNW,336,1.0,1.0,90,0.00,,,0.00,Wunderground v.1.15,2013-01-20 11:50:00,
2013-01-20 05:55:00,33.2,30.9,30.23,NNW,337,1.0,7.0,91,0.00,,,0.00,Wunderground v.1.15,2013-01-20 11:55:00,
2013-01-20 06:00:00,33.7,31.1,30.24,NNW,337,1.0,1.0,90,0.00,,,0.00,Wunderground v.1.15,2013-01-20 12:00:00,
2013-01-20 06:05:00,34.0,31.1,30.24,NW,321,1.0,7.0,89,0.00,,,0.00,Wunderground v.1.15,2013-01-20 12:05:00,
2013-01-20 06:15:00,34.5,31.0,30.24,North,352,2.0,7.0,87,0.00,,,0.00,Wunderground v.1.15,2013-01-20 12:15:00,
2013-01-20 06:20:00,34.6,30.8,30.24,North,352,3.0,3.0,86,0.00,,,0.00,Wunderground v.1.15,2013-01-20 12:20:00,
2013-01-20 06:25:00,34.8,30.8,30.24,NNW,346,3.0,7.0,85,0.00,,,0.00,Wunderground v.1.15,2013-01-20 12:25:00,
2013-01-20 06:30:00,35.0,30.7,30.24,NNW,335,3.0,3.0,84,0.00,,,0.00,Wunderground v.1.15,2013-01-20 12:30:00,
2013-01-20 06:35:00,35.3,30.9,30.24,NNW,341,3.0,7.0,84,0.00,,,0.00,Wunderground v.1.15,2013-01-20 12:35:00,
2013-01-20 06:40:00,35.4,30.8,30.24,NNW,339,3.0,3.0,83,0.00,,,0.00,Wunderground v.1.15,2013-01-20 12:40:00,
2013-01-20 06:45:00,35.5,30.8,30.24,NNW,339,2.0,7.0,83,0.00,,,0.00,Wunderground v.1.15,2013-01-20 12:45:00,
2013-01-20 06:50:00,35.5,30.5,30.25,NNW,339,1.0,7.0,82,0.00,,,0.00,Wunderground v.1.15,2013-01-20 12:50:00,
2013-01-20 06:55:00,35.2,30.6,30.25,NNW,341,1.0,7.0,83,0.00,,,0.00,Wunderground v.1.15,2013-01-20 12:55:00,
2013-01-20 07:00:00,35.0,30.1,30.25,NNW,341,1.0,1.0,82,0.00,,,0.00,Wunderground v.1.15,2013-01-20 13:00:00,
2013-01-20 07:05:00,34.8,29.9,30.25,NNW,341,0.0,7.0,82,0.00,,,0.00,Wunderground v.1.15,2013-01-20 13:05:00,
2013-01-20 07:10:00,34.5,29.9,30.25,NNW,341,1.0,1.0,83,0.00,,,0.00,Wunderground v.1.15,2013-01-20 13:10:00,
2013-01-20 07:15:00,34.4,29.8,30.26,NNW,341,1.0,7.0,83,0.00,,,0.00,Wunderground v.1.15,2013-01-20 13:15:00,
2013-01-20 07:20:00,34.3,29.7,30.26,NNW,341,1.0,1.0,83,0.00,,,0.00,Wunderground v.1.15,2013-01-20 13:20:00,
2013-01-20 07:25:00,34.1,29.5,30.26,NNW,341,1.0,7.0,83,0.00,,,0.00,Wunderground v.1.15,2013-01-20 13:25:00,
2013-01-20 07:30:00,34.0,29.4,30.26,NNW,341,0.0,7.0,83,0.00,,,0.00,Wunderground v.1.15,2013-01-20 13:30:00,
2013-01-20 07:35:00,33.8,29.2,30.26,NNW,341,0.0,7.0,83,0.00,,,0.00,Wunderground v.1.15,2013-01-20 13:35:00,
2013-01-20 07:40:00,33.6,29.0,30.26,NNW,341,0.0,7.0,83,0.00,,,0.00,Wunderground v.1.15,2013-01-20 13:40:00,
2013-01-20 07:45:00,33.5,29.2,30.26,NNW,341,0.0,7.0,84,0.00,,,0.00,Wunderground v.1.15,2013-01-20 13:45:00,
2013-01-20 07:50:00,33.6,29.3,30.26,NNW,341,0.0,7.0,84,0.00,,,0.00,Wunderground v.1.15,2013-01-20 13:50:00,
2013-01-20 07:55:00,33.6,29.0,30.26,NNW,338,0.0,7.0,83,0.00,,,0.00,Wunderground v.1.15,2013-01-20 13:55:00,
2013-01-20 08:00:00,33.9,29.3,30.27,NNW,338,0.0,7.0,83,0.00,,,0.00,Wunderground v.1.15,2013-01-20 14:00:00,
2013-01-20 08:05:00,34.1,29.2,30.27,NNW,338,0.0,7.0,82,0.00,,,0.00,Wunderground v.1.15,2013-01-20 14:05:00,
2013-01-20 08:10:00,34.4,29.8,30.27,NNW,338,0.0,7.0,83,0.00,,,0.00,Wunderground v.1.15,2013-01-20 14:10:00,
2013-01-20 08:15:00,34.8,29.9,30.28,NNW,338,0.0,7.0,82,0.00,,,0.00,Wunderground v.1.15,2013-01-20 14:15:00,
2013-01-20 08:20:00,35.1,30.2,30.28,NNW,338,0.0,7.0,82,0.00,,,0.00,Wunderground v.1.15,2013-01-20 14:20:00,
2013-01-20 08:25:00,35.5,30.5,30.28,NNW,338,0.0,7.0,82,0.00,,,0.00,Wunderground v.1.15,2013-01-20 14:25:00,
2013-01-20 08:30:00,35.9,30.9,30.28,NNW,338,0.0,7.0,82,0.00,,,0.00,Wunderground v.1.15,2013-01-20 14:30:00,
2013-01-20 08:35:00,36.3,31.3,30.28,North,360,0.0,7.0,82,0.00,,,0.00,Wunderground v.1.15,2013-01-20 14:35:00,
2013-01-20 08:40:00,36.8,31.2,30.29,North,3,1.0,7.0,80,0.00,,,0.00,Wunderground v.1.15,2013-01-20 14:40:00,
2013-01-20 08:45:00,37.4,31.2,30.29,North,355,2.0,7.0,78,0.00,,,0.00,Wunderground v.1.15,2013-01-20 14:45:00,
2013-01-20 08:50:00,38.1,31.5,30.29,North,2,3.0,9.0,77,0.00,,,0.00,Wunderground v.1.15,2013-01-20 14:50:00,
2013-01-20 08:55:00,38.6,30.0,30.29,NNE,16,6.0,11.0,71,0.00,,,0.00,Wunderground v.1.15,2013-01-20 14:55:00,
2013-01-20 09:00:00,38.8,29.1,30.29,North,3,8.0,9.0,68,0.00,,,0.00,Wunderground v.1.15,2013-01-20 15:00:00,
2013-01-20 09:05:00,38.9,28.5,30.29,North,6,8.0,9.0,66,0.00,,,0.00,Wunderground v.1.15,2013-01-20 15:05:00,
2013-01-20 09:10:00,39.0,29.0,30.30,North,10,7.0,7.0,67,0.00,,,0.00,Wunderground v.1.15,2013-01-20 15:10:00,
2013-01-20 09:15:00,39.0,28.2,30.29,North,360,6.0,7.0,65,0.00,,,0.00,Wunderground v.1.15,2013-01-20 15:15:00,
2013-01-20 09:20:00,39.0,27.8,30.29,NNW,343,6.0,7.0,64,0.00,,,0.00,Wunderground v.1.15,2013-01-20 15:20:00,
2013-01-20 09:25:00,39.2,28.8,30.30,NNE,21,5.0,9.0,66,0.00,,,0.00,Wunderground v.1.15,2013-01-20 15:25:00,
2013-01-20 09:30:00,39.3,28.1,30.30,North,1,5.0,7.0,64,0.00,,,0.00,Wunderground v.1.15,2013-01-20 15:30:00,
2013-01-20 09:35:00,39.5,28.7,30.30,NNW,343,5.0,7.0,65,0.00,,,0.00,Wunderground v.1.15,2013-01-20 15:35:00,
2013-01-20 09:40:00,39.7,28.5,30.30,North,4,4.0,7.0,64,0.00,,,0.00,Wunderground v.1.15,2013-01-20 15:40:00,
2013-01-20 09:45:00,39.9,29.5,30.30,North,8,3.0,7.0,66,0.00,,,0.00,Wunderground v.1.15,2013-01-20 15:45:00,
2013-01-20 09:50:00,40.4,28.8,30.30,NNE,15,4.0,7.0,63,0.00,,,0.00,Wunderground v.1.15,2013-01-20 15:50:00,
2013-01-20 09:55:00,40.9,28.9,30.31,North,360,5.0,7.0,62,0.00,,,0.00,Wunderground v.1.15,2013-01-20 15:55:00,
2013-01-20 10:00:00,41.3,28.0,30.31,NNE,14,4.0,4.0,59,0.00,,,0.00,Wunderground v.1.15,2013-01-20 16:00:00,
2013-01-20 10:05:00,41.6,28.3,30.31,NNE,15,5.0,5.0,59,0.00,,,0.00,Wunderground v.1.15,2013-01-20 16:05:00,
2013-01-20 10:10:00,41.7,28.8,30.30,NW,314,5.0,5.0,60,0.00,,,0.00,Wunderground v.1.15,2013-01-20 16:10:00,
2013-01-20 10:15:00,42.0,29.1,30.31,North,357,4.0,7.0,60,0.00,,,0.00,Wunderground v.1.15,2013-01-20 16:15:00,
2013-01-20 10:20:00,42.3,28.6,30.30,NW,314,4.0,7.0,58,0.00,,,0.00,Wunderground v.1.15,2013-01-20 16:20:00,
2013-01-20 10:25:00,42.6,29.3,30.30,North,6,4.0,7.0,59,0.00,,,0.00,Wunderground v.1.15,2013-01-20 16:25:00,
2013-01-20 10:30:00,43.1,28.9,30.30,NW,321,4.0,7.0,57,0.00,,,0.00,Wunderground v.1.15,2013-01-20 16:30:00,
2013-01-20 10:35:00,43.5,29.7,30.30,North,360,4.0,7.0,58,0.00,,,0.00,Wunderground v.1.15,2013-01-20 16:35:00,
2013-01-20 10:40:00,44.0,29.7,30.30,North,356,3.0,7.0,57,0.00,,,0.00,Wunderground v.1.15,2013-01-20 16:40:00,
2013-01-20 10:45:00,44.3,29.6,30.30,NE,47,6.0,7.0,56,0.00,,,0.00,Wunderground v.1.15,2013-01-20 16:45:00,
2013-01-20 10:50:00,44.2,28.6,30.30,NE,38,8.0,10.0,54,0.00,,,0.00,Wunderground v.1.15,2013-01-20 16:50:00,
2013-01-20 10:55:00,43.6,27.6,30.30,North,10,8.0,11.0,53,0.00,,,0.00,Wunderground v.1.15,2013-01-20 16:55:00,
2013-01-20 11:00:00,43.7,28.6,30.29,NNE,12,8.0,8.0,55,0.00,,,0.00,Wunderground v.1.15,2013-01-20 17:00:00,
2013-01-20 11:05:00,44.2,28.6,30.29,NE,41,6.0,8.0,54,0.00,,,0.00,Wunderground v.1.15,2013-01-20 17:05:00,
2013-01-20 11:10:00,44.7,29.1,30.29,NE,45,5.0,8.0,54,0.00,,,0.00,Wunderground v.1.15,2013-01-20 17:10:00,
2013-01-20 11:15:00,45.0,27.9,30.29,NNE,15,6.0,8.0,51,0.00,,,0.00,Wunderground v.1.15,2013-01-20 17:15:00,
2013-01-20 11:20:00,45.0,28.9,30.29,North,354,7.0,7.0,53,0.00,,,0.00,Wunderground v.1.15,2013-01-20 17:20:00,
2013-01-20 11:25:00,45.4,30.2,30.28,North,354,5.0,7.0,55,0.00,,,0.00,Wunderground v.1.15,2013-01-20 17:25:00,
2013-01-20 11:30:00,46.0,29.8,30.28,North,2,4.0,7.0,53,0.00,,,0.00,Wunderground v.1.15,2013-01-20 17:30:00,
2013-01-20 11:35:00,46.6,29.9,30.27,North,358,4.0,7.0,52,0.00,,,0.00,Wunderground v.1.15,2013-01-20 17:35:00,
2013-01-20 11:40:00,46.8,30.1,30.27,NNE,13,4.0,7.0,52,0.00,,,0.00,Wunderground v.1.15,2013-01-20 17:40:00,
2013-01-20 11:45:00,46.7,29.5,30.26,North,10,4.0,7.0,51,0.00,,,0.00,Wunderground v.1.15,2013-01-20 17:45:00,
2013-01-20 11:50:00,46.7,29.5,30.26,North,350,4.0,7.0,51,0.00,,,0.00,Wunderground v.1.15,2013-01-20 17:50:00,
2013-01-20 11:55:00,46.9,29.2,30.26,NNE,16,4.0,7.0,50,0.00,,,0.00,Wunderground v.1.15,2013-01-20 17:55:00,
2013-01-20 12:00:00,46.8,27.1,30.26,North,8,4.0,4.0,46,0.00,,,0.00,Wunderground v.1.15,2013-01-20 18:00:00,
2013-01-20 12:05:00,46.5,27.3,30.26,NE,41,4.0,7.0,47,0.00,,,0.00,Wunderground v.1.15,2013-01-20 18:05:00,
2013-01-20 12:10:00,46.3,28.2,30.26,NNW,331,4.0,7.0,49,0.00,,,0.00,Wunderground v.1.15,2013-01-20 18:10:00,
2013-01-20 12:15:00,46.4,28.3,30.26,North,356,4.0,7.0,49,0.00,,,0.00,Wunderground v.1.15,2013-01-20 18:15:00,
2013-01-20 12:20:00,46.9,28.2,30.26,North,358,3.0,3.0,48,0.00,,,0.00,Wunderground v.1.15,2013-01-20 18:20:00,
2013-01-20 12:25:00,47.0,27.8,30.25,NNW,342,3.0,7.0,47,0.00,,,0.00,Wunderground v.1.15,2013-01-20 18:25:00,
2013-01-20 12:30:00,46.9,29.2,30.25,NW,321,4.0,4.0,50,0.00,,,0.00,Wunderground v.1.15,2013-01-20 18:30:00,
2013-01-20 12:40:00,46.6,28.9,30.25,North,360,3.0,3.0,50,0.00,,,0.00,Wunderground v.1.15,2013-01-20 18:40:00,
2013-01-20 12:45:00,46.6,27.9,30.25,NNW,347,3.0,7.0,48,0.00,,,0.00,Wunderground v.1.15,2013-01-20 18:45:00,
2013-01-20 12:50:00,46.7,28.5,30.25,NE,42,3.0,3.0,49,0.00,,,0.00,Wunderground v.1.15,2013-01-20 18:50:00,
2013-01-20 12:55:00,46.9,30.6,30.25,NW,321,2.0,4.0,53,0.00,,,0.00,Wunderground v.1.15,2013-01-20 18:55:00,
2013-01-20 13:00:00,47.2,30.0,30.25,NW,321,2.0,7.0,51,0.00,,,0.00,Wunderground v.1.15,2013-01-20 19:00:00,
2013-01-20 13:05:00,47.7,29.5,30.25,NE,36,3.0,7.0,49,0.00,,,0.00,Wunderground v.1.15,2013-01-20 19:05:00,
2013-01-20 13:10:00,47.8,31.5,30.24,NNE,23,3.0,7.0,53,0.00,,,0.00,Wunderground v.1.15,2013-01-20 19:10:00,
2013-01-20 13:15:00,47.6,29.4,30.24,WNW,288,2.0,7.0,49,0.00,,,0.00,Wunderground v.1.15,2013-01-20 19:15:00,
2013-01-20 13:20:00,47.7,30.0,30.24,NW,326,2.0,7.0,50,0.00,,,0.00,Wunderground v.1.15,2013-01-20 19:20:00,
2013-01-20 13:25:00,47.9,30.6,30.24,NW,311,3.0,7.0,51,0.00,,,0.00,Wunderground v.1.15,2013-01-20 19:25:00,
2013-01-20 13:30:00,48.3,31.0,30.24,NNW,331,2.0,7.0,51,0.00,,,0.00,Wunderground v.1.15,2013-01-20 19:30:00,
2013-01-20 13:35:00,48.6,31.3,30.24,NW,321,2.0,7.0,51,0.00,,,0.00,Wunderground v.1.15,2013-01-20 19:35:00,
2013-01-20 13:40:00,48.8,31.5,30.24,North,351,2.0,2.0,51,0.00,,,0.00,Wunderground v.1.15,2013-01-20 19:40:00,
2013-01-20 13:45:00,49.1,31.2,30.24,North,350,2.0,3.0,50,0.00,,,0.00,Wunderground v.1.15,2013-01-20 19:45:00,
2013-01-20 13:55:00,48.7,30.9,30.24,NNW,344,3.0,8.0,50,0.00,,,0.00,Wunderground v.1.15,2013-01-20 19:55:00,
2013-01-20 14:05:00,48.4,29.1,30.24,WNW,290,2.0,7.0,47,0.00,,,0.00,Wunderground v.1.15,2013-01-20 20:05:00,
2013-01-20 14:10:00,48.6,29.3,30.24,North,4,2.0,2.0,47,0.00,,,0.00,Wunderground v.1.15,2013-01-20 20:10:00,
2013-01-20 14:15:00,48.5,28.6,30.24,North,3,2.0,5.0,46,0.00,,,0.00,Wunderground v.1.15,2013-01-20 20:15:00,
2013-01-20 14:20:00,47.9,27.6,30.23,NNE,27,2.0,7.0,45,0.00,,,0.00,Wunderground v.1.15,2013-01-20 20:20:00,
2013-01-20 14:25:00,47.7,28.9,30.23,North,3,2.0,7.0,48,0.00,,,0.00,Wunderground v.1.15,2013-01-20 20:25:00,
2013-01-20 14:30:00,47.8,27.5,30.23,NNE,25,2.0,7.0,45,0.00,,,0.00,Wunderground v.1.15,2013-01-20 20:30:00,
2013-01-20 14:40:00,47.6,26.2,30.23,NNE,24,2.0,2.0,43,0.00,,,0.00,Wunderground v.1.15,2013-01-20 20:40:00,
2013-01-20 14:45:00,47.5,27.7,30.23,NNE,18,3.0,5.0,46,0.00,,,0.00,Wunderground v.1.15,2013-01-20 20:45:00,
2013-01-20 14:50:00,47.2,25.3,30.23,NNE,19,3.0,3.0,42,0.00,,,0.00,Wunderground v.1.15,2013-01-20 20:50:00,
2013-01-20 14:55:00,47.3,27.0,30.23,NNW,342,2.0,7.0,45,0.00,,,0.00,Wunderground v.1.15,2013-01-20 20:55:00,
2013-01-20 15:00:00,47.8,26.9,30.22,NNE,20,1.0,7.0,44,0.00,,,0.00,Wunderground v.1.15,2013-01-20 21:00:00,
2013-01-20 15:05:00,48.0,26.0,30.22,NNE,19,2.0,7.0,42,0.00,,,0.00,Wunderground v.1.15,2013-01-20 21:05:00,
2013-01-20 15:10:00,48.0,24.2,30.22,North,358,2.0,7.0,39,0.00,,,0.00,Wunderground v.1.15,2013-01-20 21:10:00,
2013-01-20 15:15:00,48.3,25.1,30.22,North,5,2.0,7.0,40,0.00,,,0.00,Wunderground v.1.15,2013-01-20 21:15:00,
2013-01-20 15:20:00,48.4,25.8,30.22,North,3,3.0,7.0,41,0.00,,,0.00,Wunderground v.1.15,2013-01-20 21:20:00,
2013-01-20 15:25:00,48.5,25.2,30.22,North,353,2.0,7.0,40,0.00,,,0.00,Wunderground v.1.15,2013-01-20 21:25:00,
2013-01-20 15:30:00,48.5,27.0,30.22,NNE,20,2.0,2.0,43,0.00,,,0.00,Wunderground v.1.15,2013-01-20 21:30:00,
2013-01-20 15:35:00,48.2,26.2,30.22,NE,52,3.0,6.0,42,0.00,,,0.00,Wunderground v.1.15,2013-01-20 21:35:00,
2013-01-20 15:40:00,47.4,26.0,30.23,NNE,29,4.0,4.0,43,0.00,,,0.00,Wunderground v.1.15,2013-01-20 21:40:00,
2013-01-20 15:45:00,47.1,26.3,30.23,NNE,25,3.0,7.0,44,0.00,,,0.00,Wunderground v.1.15,2013-01-20 21:45:00,
2013-01-20 15:50:00,47.2,25.8,30.23,NNE,17,2.0,7.0,43,0.00,,,0.00,Wunderground v.1.15,2013-01-20 21:50:00,
2013-01-20 15:55:00,47.1,25.2,30.23,NNE,31,2.0,7.0,42,0.00,,,0.00,Wunderground v.1.15,2013-01-20 21:55:00,
2013-01-20 16:00:00,46.6,24.7,30.23,NE,34,3.0,3.0,42,0.00,,,0.00,Wunderground v.1.15,2013-01-20 22:00:00,
2013-01-20 16:05:00,46.3,24.4,30.23,NW,321,3.0,5.0,42,0.00,,,0.00,Wunderground v.1.15,2013-01-20 22:05:00,
2013-01-20 16:10:00,46.1,22.5,30.23,North,352,2.0,2.0,39,0.00,,,0.00,Wunderground v.1.15,2013-01-20 22:10:00,
2013-01-20 16:15:00,46.1,23.7,30.22,NNW,331,2.0,7.0,41,0.00,,,0.00,Wunderground v.1.15,2013-01-20 22:15:00,
2013-01-20 16:20:00,45.8,23.4,30.23,North,11,2.0,7.0,41,0.00,,,0.00,Wunderground v.1.15,2013-01-20 22:20:00,
2013-01-20 16:25:00,45.4,24.2,30.23,North,8,2.0,7.0,43,0.00,,,0.00,Wunderground v.1.15,2013-01-20 22:25:00,
2013-01-20 16:30:00,45.0,23.3,30.23,NNE,12,3.0,7.0,42,0.00,,,0.00,Wunderground v.1.15,2013-01-20 22:30:00,
2013-01-20 16:35:00,44.3,24.3,30.23,North,4,4.0,7.0,45,0.00,,,0.00,Wunderground v.1.15,2013-01-20 22:35:00,
2013-01-20 16:40:00,43.4,24.0,30.23,NNE,18,4.0,7.0,46,0.00,,,0.00,Wunderground v.1.15,2013-01-20 22:40:00,
2013-01-20 16:45:00,42.7,23.8,30.23,North,7,3.0,7.0,47,0.00,,,0.00,Wunderground v.1.15,2013-01-20 22:45:00,
2013-01-20 16:50:00,42.2,23.4,30.23,NNE,12,3.0,7.0,47,0.00,,,0.00,Wunderground v.1.15,2013-01-20 22:50:00,
2013-01-20 16:55:00,41.7,23.4,30.23,NNE,12,4.0,7.0,48,0.00,,,0.00,Wunderground v.1.15,2013-01-20 22:55:00,
2013-01-20 17:00:00,41.3,23.6,30.23,NNE,22,4.0,4.0,49,0.00,,,0.00,Wunderground v.1.15,2013-01-20 23:00:00,
2013-01-20 17:05:00,40.9,23.7,30.23,NNE,21,2.0,7.0,50,0.00,,,0.00,Wunderground v.1.15,2013-01-20 23:05:00,
2013-01-20 17:10:00,40.4,23.2,30.23,North,4,2.0,2.0,50,0.00,,,0.00,Wunderground v.1.15,2013-01-20 23:10:00,
2013-01-20 17:15:00,40.0,23.3,30.23,NNE,28,2.0,7.0,51,0.00,,,0.00,Wunderground v.1.15,2013-01-20 23:15:00,
2013-01-20 17:20:00,39.5,23.3,30.23,NNE,28,1.0,1.0,52,0.00,,,0.00,Wunderground v.1.15,2013-01-20 23:20:00,
2013-01-20 17:25:00,39.1,23.8,30.23,NNE,13,1.0,7.0,54,0.00,,,0.00,Wunderground v.1.15,2013-01-20 23:25:00,
2013-01-20 17:30:00,38.6,23.4,30.23,NNE,29,1.0,1.0,54,0.00,,,0.00,Wunderground v.1.15,2013-01-20 23:30:00,
2013-01-20 17:35:00,38.3,23.1,30.23,NNE,29,1.0,2.0,54,0.00,,,0.00,Wunderground v.1.15,2013-01-20 23:35:00,
2013-01-20 17:40:00,37.9,23.2,30.23,NNE,26,1.0,7.0,55,0.00,,,0.00,Wunderground v.1.15,2013-01-20 23:40:00,
2013-01-20 17:45:00,37.6,22.9,30.23,NNE,27,1.0,7.0,55,0.00,,,0.00,Wunderground v.1.15,2013-01-20 23:45:00,
2013-01-20 17:50:00,37.3,23.0,30.23,NNE,27,1.0,7.0,56,0.00,,,0.00,Wunderground v.1.15,2013-01-20 23:50:00,
2013-01-20 17:55:00,37.0,23.2,30.23,NNE,31,1.0,7.0,57,0.00,,,0.00,Wunderground v.1.15,2013-01-20 23:55:00,
2013-01-20 18:00:00,36.7,22.9,30.23,NNE,31,1.0,7.0,57,0.00,,,0.00,Wunderground v.1.15,2013-01-21 00:00:00,
2013-01-20 18:05:00,36.4,23.0,30.23,NNE,31,1.0,7.0,58,0.00,,,0.00,Wunderground v.1.15,2013-01-21 00:05:00,
2013-01-20 18:10:00,36.1,23.1,30.23,NNE,17,1.0,1.0,59,0.00,,,0.00,Wunderground v.1.15,2013-01-21 00:10:00,
2013-01-20 18:15:00,35.7,23.2,30.23,NNE,17,1.0,3.0,60,0.00,,,0.00,Wunderground v.1.15,2013-01-21 00:15:00,
2013-01-20 18:25:00,35.1,22.6,30.24,NNE,17,0.0,7.0,60,0.00,,,0.00,Wunderground v.1.15,2013-01-21 00:25:00,
2013-01-20 18:30:00,35.1,23.0,30.23,NNE,17,0.0,7.0,61,0.00,,,0.00,Wunderground v.1.15,2013-01-21 00:30:00,
2013-01-20 18:35:00,34.9,22.8,30.23,NNE,30,1.0,7.0,61,0.00,,,0.00,Wunderground v.1.15,2013-01-21 00:35:00,
2013-01-20 18:40:00,34.7,22.6,30.24,NNE,30,1.0,7.0,61,0.00,,,0.00,Wunderground v.1.15,2013-01-21 00:40:00,
2013-01-20 18:45:00,34.5,23.2,30.23,NNE,15,1.0,7.0,63,0.00,,,0.00,Wunderground v.1.15,2013-01-21 00:45:00,
2013-01-20 18:50:00,34.2,22.5,30.23,NNE,15,1.0,1.0,62,0.00,,,0.00,Wunderground v.1.15,2013-01-21 00:50:00,
2013-01-20 18:55:00,34.0,22.3,30.23,NNE,15,1.0,7.0,62,0.00,,,0.00,Wunderground v.1.15,2013-01-21 00:55:00,
2013-01-20 19:00:00,33.8,22.1,30.24,NNE,15,0.0,7.0,62,0.00,,,0.00,Wunderground v.1.15,2013-01-21 01:00:00,
2013-01-20 19:05:00,33.6,22.3,30.24,NNE,15,0.0,7.0,63,0.00,,,0.00,Wunderground v.1.15,2013-01-21 01:05:00,
2013-01-20 19:10:00,33.3,22.1,30.23,NNE,29,1.0,7.0,63,0.00,,,0.00,Wunderground v.1.15,2013-01-21 01:10:00,
2013-01-20 19:15:00,33.3,21.7,30.24,NE,37,1.0,7.0,62,0.00,,,0.00,Wunderground v.1.15,2013-01-21 01:15:00,
2013-01-20 19:20:00,33.2,22.0,30.24,North,8,2.0,7.0,63,0.00,,,0.00,Wunderground v.1.15,2013-01-21 01:20:00,
2013-01-20 19:25:00,33.0,22.1,30.23,NNE,17,2.0,7.0,64,0.00,,,0.00,Wunderground v.1.15,2013-01-21 01:25:00,
2013-01-20 19:30:00,32.8,22.0,30.24,North,3,2.0,7.0,64,0.00,,,0.00,Wunderground v.1.15,2013-01-21 01:30:00,
2013-01-20 19:35:00,32.7,21.9,30.24,North,353,1.0,7.0,64,0.00,,,0.00,Wunderground v.1.15,2013-01-21 01:35:00,
2013-01-20 19:40:00,32.5,21.7,30.24,NNE,19,2.0,7.0,64,0.00,,,0.00,Wunderground v.1.15,2013-01-21 01:40:00,
2013-01-20 19:45:00,32.4,21.9,30.23,NNE,20,2.0,7.0,65,0.00,,,0.00,Wunderground v.1.15,2013-01-21 01:45:00,
2013-01-20 19:50:00,32.3,21.8,30.23,North,3,3.0,3.0,65,0.00,,,0.00,Wunderground v.1.15,2013-01-21 01:50:00,
2013-01-20 19:55:00,32.2,21.4,30.23,NNE,22,3.0,7.0,64,0.00,,,0.00,Wunderground v.1.15,2013-01-21 01:55:00,
2013-01-20 20:00:00,32.1,21.7,30.23,North,8,3.0,3.0,65,0.00,,,0.00,Wunderground v.1.15,2013-01-21 02:00:00,
2013-01-20 20:05:00,32.1,21.7,30.23,North,9,3.0,7.0,65,0.00,,,0.00,Wunderground v.1.15,2013-01-21 02:05:00,
2013-01-20 20:10:00,32.1,21.7,30.22,NNE,16,2.0,7.0,65,0.00,,,0.00,Wunderground v.1.15,2013-01-21 02:10:00,
2013-01-20 20:15:00,32.0,21.9,30.22,North,8,2.0,7.0,66,0.00,,,0.00,Wunderground v.1.15,2013-01-21 02:15:00,
2013-01-20 20:20:00,31.8,21.4,30.22,North,5,2.0,7.0,65,0.00,,,0.00,Wunderground v.1.15,2013-01-21 02:20:00,
2013-01-20 20:25:00,31.8,21.4,30.23,North,6,3.0,7.0,65,0.00,,,0.00,Wunderground v.1.15,2013-01-21 02:25:00,
2013-01-20 20:30:00,31.9,21.1,30.22,North,6,5.0,5.0,64,0.00,,,0.00,Wunderground v.1.15,2013-01-21 02:30:00,
2013-01-20 20:35:00,32.1,21.3,30.22,North,359,5.0,7.0,64,0.00,,,0.00,Wunderground v.1.15,2013-01-21 02:35:00,
2013-01-20 20:40:00,32.1,21.3,30.22,NNE,13,4.0,7.0,64,0.00,,,0.00,Wunderground v.1.15,2013-01-21 02:40:00,
2013-01-20 20:45:00,32.2,21.4,30.23,North,355,4.0,7.0,64,0.00,,,0.00,Wunderground v.1.15,2013-01-21 02:45:00,
2013-01-20 20:50:00,32.1,21.3,30.23,North,4,4.0,7.0,64,0.00,,,0.00,Wunderground v.1.15,2013-01-21 02:50:00,
2013-01-20 20:55:00,32.0,21.2,30.23,North,356,4.0,7.0,64,0.00,,,0.00,Wunderground v.1.15,2013-01-21 02:55:00,
2013-01-20 21:00:00,31.9,21.1,30.23,North,356,5.0,5.0,64,0.00,,,0.00,Wunderground v.1.15,2013-01-21 03:00:00,
2013-01-20 21:05:00,31.9,21.5,30.23,North,4,4.0,7.0,65,0.00,,,0.00,Wunderground v.1.15,2013-01-21 03:05:00,
2013-01-20 21:10:00,31.7,20.9,30.23,North,4,4.0,7.0,64,0.00,,,0.00,Wunderground v.1.15,2013-01-21 03:10:00,
2013-01-20 21:15:00,31.6,21.2,30.23,North,3,4.0,7.0,65,0.00,,,0.00,Wunderground v.1.15,2013-01-21 03:15:00,
2013-01-20 21:20:00,31.5,21.1,30.23,North,360,4.0,4.0,65,0.00,,,0.00,Wunderground v.1.15,2013-01-21 03:20:00,
2013-01-20 21:25:00,31.4,21.0,30.23,North,354,3.0,7.0,65,0.00,,,0.00,Wunderground v.1.15,2013-01-21 03:25:00,
2013-01-20 21:30:00,31.3,21.3,30.23,NNW,348,2.0,7.0,66,0.00,,,0.00,Wunderground v.1.15,2013-01-21 03:30:00,
2013-01-20 21:40:00,31.0,21.3,30.23,NNE,14,2.0,7.0,67,0.00,,,0.00,Wunderground v.1.15,2013-01-21 03:40:00,
2013-01-20 21:45:00,30.8,21.1,30.23,North,8,2.0,7.0,67,0.00,,,0.00,Wunderground v.1.15,2013-01-21 03:45:00,
2013-01-20 21:50:00,30.6,21.3,30.23,North,8,1.0,1.0,68,0.00,,,0.00,Wunderground v.1.15,2013-01-21 03:50:00,
2013-01-20 21:55:00,30.4,21.4,30.24,North,352,0.0,7.0,69,0.00,,,0.00,Wunderground v.1.15,2013-01-21 03:55:00,
2013-01-20 22:00:00,30.1,21.2,30.24,North,352,0.0,7.0,69,0.00,,,0.00,Wunderground v.1.15,2013-01-21 04:00:00,
2013-01-20 22:05:00,29.9,21.3,30.24,North,352,0.0,7.0,70,0.00,,,0.00,Wunderground v.1.15,2013-01-21 04:05:00,
2013-01-20 22:10:00,29.7,21.4,30.24,North,7,1.0,7.0,71,0.00,,,0.00,Wunderground v.1.15,2013-01-21 04:10:00,
2013-01-20 22:15:00,29.5,21.3,30.24,North,6,1.0,7.0,71,0.00,,,0.00,Wunderground v.1.15,2013-01-21 04:15:00,
2013-01-20 22:20:00,29.4,21.2,30.24,North,6,1.0,1.0,71,0.00,,,0.00,Wunderground v.1.15,2013-01-21 04:20:00,
2013-01-20 22:25:00,29.3,21.4,30.25,NNE,12,1.0,2.0,72,0.00,,,0.00,Wunderground v.1.15,2013-01-21 04:25:00,
2013-01-20 22:30:00,29.2,21.3,30.25,North,3,1.0,7.0,72,0.00,,,0.00,Wunderground v.1.15,2013-01-21 04:30:00,
2013-01-20 22:35:00,29.1,21.2,30.25,North,358,1.0,7.0,72,0.00,,,0.00,Wunderground v.1.15,2013-01-21 04:35:00,
2013-01-20 22:40:00,29.0,21.1,30.25,NNW,343,1.0,1.0,72,0.00,,,0.00,Wunderground v.1.15,2013-01-21 04:40:00,
2013-01-20 22:45:00,28.9,21.0,30.25,North,2,1.0,4.0,72,0.00,,,0.00,Wunderground v.1.15,2013-01-21 04:45:00,
2013-01-20 22:50:00,28.9,21.0,30.25,North,2,2.0,7.0,72,0.00,,,0.00,Wunderground v.1.15,2013-01-21 04:50:00,
2013-01-20 22:55:00,28.9,21.0,30.25,NNE,12,3.0,7.0,72,0.00,,,0.00,Wunderground v.1.15,2013-01-21 04:55:00,
2013-01-20 23:05:00,28.8,20.9,30.25,North,3,3.0,5.0,72,0.00,,,0.00,Wunderground v.1.15,2013-01-21 05:05:00,
2013-01-20 23:10:00,28.7,20.8,30.25,North,351,3.0,7.0,72,0.00,,,0.00,Wunderground v.1.15,2013-01-21 05:10:00,
2013-01-20 23:15:00,28.7,20.8,30.25,North,5,3.0,7.0,72,0.00,,,0.00,Wunderground v.1.15,2013-01-21 05:15:00,
2013-01-20 23:20:00,28.6,21.0,30.25,NNW,341,3.0,3.0,73,0.00,,,0.00,Wunderground v.1.15,2013-01-21 05:20:00,
2013-01-20 23:25:00,28.5,20.9,30.25,North,10,2.0,7.0,73,0.00,,,0.00,Wunderground v.1.15,2013-01-21 05:25:00,
2013-01-20 23:30:00,28.5,20.9,30.25,NNW,341,2.0,2.0,73,0.00,,,0.00,Wunderground v.1.15,2013-01-21 05:30:00,
2013-01-20 23:35:00,28.3,21.1,30.25,North,6,3.0,3.0,74,0.00,,,0.00,Wunderground v.1.15,2013-01-21 05:35:00,
2013-01-20 23:40:00,28.3,20.7,30.25,North,356,3.0,7.0,73,0.00,,,0.00,Wunderground v.1.15,2013-01-21 05:40:00,
2013-01-20 23:45:00,28.2,20.7,30.25,North,360,3.0,7.0,73,0.00,,,0.00,Wunderground v.1.15,2013-01-21 05:45:00,
2013-01-20 23:50:00,28.2,20.7,30.26,North,8,2.0,2.0,73,0.00,,,0.00,Wunderground v.1.15,2013-01-21 05:50:00,
2013-01-20 23:55:00,28.1,20.9,30.25,North,10,2.0,7.0,74,0.00,,,0.00,Wunderground v.1.15,2013-01-21 05:55:00,